User: anonymous   Login
Location: Unspecified
(0.0000°N, 0.0000°E)
Time: 23:59:24
(UTC+00:00)
Language:

TBA - TO BE ASSIGNED - Orbit

View from above orbital plane
View from above orbital plane
View from above satellite
View from above satellite

Ground track
Ground track

The orbit is defined by the following mean orbital elements,

1 68916U          26145.58335647 +.00000000 +00000-0 -57577-1 0 00005
2 68916  97.2846 341.4641 0001572  85.2871 295.4790 15.42180865    03
Epoch (UTC): 25 May 2026 14:00:01
Eccentricity: 0.0001572
inclination: 97.2846°
perigee height: 439 km
apogee height: 441 km
right ascension of ascending node: 341.4641°
argument of perigee: 85.2871°
revolutions per day: 15.42180865
mean anomaly at epoch: 295.4790°

The dashed part of the orbit path shows where the satellite is in the earth's shadow,  

DLR